Weather History for Sparta, WI

Change the Weather History Date:

Thursday, February 20, 2014

  Actual Average Record
Temperature  
Mean Temperature 34 °F -  
Max Temperature 37 °F 33 °F 55 °F (1981)
Min Temperature 32 °F 10 °F -28 °F (1966)
Degree Days  
Heating Degree Days 30    
Moisture  
Dew Point 28 °F    
Average Humidity 80    
Maximum Humidity 100    
Minimum Humidity 60    
Precipitation  
Precipitation 0.16 in - - ()
Sea Level Pressure  
Sea Level Pressure 29.50 in    
Wind  
Wind Speed 7 mph (East)    
Max Wind Speed 26 mph    
Max Gust Speed 37 mph    
Visibility 8 miles    
Events Rain , Snow , Thunderstorm    
Averages and records for this station are not official NWS values.
T = Trace of Precipitation, MM = Missing Value Source: NWS Daily Summary

Daily Weather History Graph

Daily Weather History Graph

Search for Another Location

Airport:

Trip Planner

Search our weather history database for the weather conditions in past years. The results will help you decide how hot, cold, wet, or windy it might be!

Date:

Astronomy

Feb. 20, 2014 Rise Set
Actual Time 6:54 AM CST 5:39 PM CST
Civil Twilight 6:25 AM CST 6:08 PM CST
Nautical Twilight 5:51 AM CST 6:42 PM CST
Astronomical Twilight 5:18 AM CST 7:15 PM CST
Moon 11:47 PM CST (2/20) 9:25 AM CST (2/20)
Length of Visible Light 11h 43m
Length of Day
10h 45m
Waning Gibbous, 70% of the Moon is Illuminated
Feb 20
Waning Gibbous
Feb 22
Last Quarter
Mar 1
New
Mar 8
First Quarter
Mar 16
Full

Hourly Weather History & Observations

Time (CST) Temp. Windchill Dew Point Humidity Pressure Visibility Wind Dir Wind Speed Gust Speed Precip Events Conditions
12:00 AM 33.8 °F - 21.2 °F 60% 29.81 in 10.0 mi Calm Calm - N/A   Scattered Clouds
12:15 AM 32.0 °F - 22.1 °F 67% 29.80 in 10.0 mi Calm Calm - N/A   Scattered Clouds
12:18 AM 32.0 °F - 21.2 °F 64% 29.80 in 10.0 mi Calm Calm - N/A   Scattered Clouds
12:35 AM 34.0 °F 31.0 °F 21.9 °F 61% 29.80 in 10.0 mi North 3.5 mph - N/A   Scattered Clouds
12:39 AM 33.8 °F 29.6 °F 21.2 °F 60% 29.79 in 10.0 mi NNE 4.6 mph - N/A   Scattered Clouds
1:00 AM 32.0 °F - 21.2 °F 64% 29.79 in 10.0 mi Calm Calm - N/A   Mostly Cloudy
1:15 AM 34.2 °F - 21.9 °F 61% 29.79 in 10.0 mi Calm Calm - N/A   Mostly Cloudy
1:20 AM 33.8 °F - 21.2 °F 60% 29.79 in 10.0 mi Calm Calm - N/A   Mostly Cloudy
1:35 AM 32.4 °F 29.1 °F 22.5 °F 67% 29.78 in 10.0 mi ENE 3.5 mph - N/A   Scattered Clouds
1:55 AM 33.6 °F 29.4 °F 22.3 °F 63% 29.78 in 10.0 mi ESE 4.6 mph - N/A   Clear
2:01 AM 32.0 °F 27.5 °F 23.0 °F 69% 29.77 in 10.0 mi East 4.6 mph - N/A   Scattered Clouds
2:15 AM 32.5 °F 29.3 °F 22.8 °F 67% 29.77 in 10.0 mi East 3.5 mph - N/A   Mostly Cloudy
2:17 AM 33.8 °F - 23.0 °F 65% 29.76 in 10.0 mi Calm Calm - N/A   Mostly Cloudy
2:35 AM 33.4 °F 29.1 °F 22.1 °F 63% 29.76 in 10.0 mi East 4.6 mph - N/A   Mostly Cloudy
2:43 AM 33.8 °F 29.6 °F 21.2 °F 60% 29.75 in 10.0 mi East 4.6 mph - N/A   Mostly Cloudy
2:55 AM 33.3 °F 27.9 °F 23.0 °F 66% 29.75 in 10.0 mi East 5.8 mph - N/A   Scattered Clouds
2:59 AM 33.8 °F 27.7 °F 23.0 °F 65% 29.75 in 10.0 mi East 6.9 mph - N/A   Scattered Clouds
3:15 AM 34.2 °F 29.0 °F 22.6 °F 63% 29.75 in 10.0 mi East 5.8 mph - N/A   Mostly Cloudy
3:20 AM 33.8 °F 27.7 °F 23.0 °F 65% 29.75 in 10.0 mi East 6.9 mph - N/A   Overcast
3:35 AM 33.8 °F 28.6 °F 23.4 °F 66% 29.75 in 10.0 mi East 5.8 mph - N/A   Overcast
3:37 AM 33.8 °F 29.6 °F 23.0 °F 65% 29.75 in 10.0 mi East 4.6 mph - N/A   Overcast
3:55 AM 33.3 °F 30.2 °F 23.9 °F 69% 29.74 in 10.0 mi East 3.5 mph - N/A   Overcast
4:15 AM 32.9 °F 29.8 °F 24.1 °F 70% 29.73 in 10.0 mi East 3.5 mph - N/A   Overcast
4:20 AM 33.8 °F 30.8 °F 24.8 °F 70% 29.73 in 10.0 mi East 3.5 mph - N/A   Overcast
4:35 AM 33.8 °F 27.7 °F 23.2 °F 65% 29.73 in 10.0 mi East 6.9 mph - N/A   Overcast
4:40 AM 33.8 °F 27.7 °F 23.0 °F 65% 29.73 in 10.0 mi East 6.9 mph - N/A   Overcast
5:00 AM 33.8 °F 27.7 °F 24.8 °F 70% 29.72 in 10.0 mi ESE 6.9 mph - N/A   Overcast
5:15 AM 32.9 °F 26.7 °F 23.5 °F 68% 29.72 in 10.0 mi ESE 6.9 mph - N/A   Mostly Cloudy
5:20 AM 33.8 °F 27.0 °F 23.0 °F 65% 29.72 in 10.0 mi ESE 8.1 mph - N/A   Mostly Cloudy
5:35 AM 33.1 °F 26.1 °F 23.7 °F 68% 29.71 in 10.0 mi ESE 8.1 mph - N/A   Overcast
5:40 AM 33.8 °F 25.8 °F 23.0 °F 65% 29.71 in 10.0 mi ESE 10.4 mph - N/A   Overcast
5:57 AM 33.8 °F 26.4 °F 24.8 °F 70% 29.71 in 10.0 mi East 9.2 mph - N/A   Overcast
6:15 AM 33.1 °F 25.5 °F 23.5 °F 68% 29.70 in 10.0 mi East 9.2 mph - N/A   Overcast
6:19 AM 33.8 °F 26.4 °F 24.8 °F 70% 29.70 in 10.0 mi East 9.2 mph - N/A   Overcast
6:35 AM 32.9 °F 24.7 °F 23.9 °F 69% 29.70 in 10.0 mi East 10.4 mph - N/A   Overcast
6:40 AM 33.8 °F 26.4 °F 24.8 °F 70% 29.70 in 10.0 mi East 9.2 mph - N/A   Overcast
7:00 AM 33.8 °F 27.0 °F 24.8 °F 70% 29.68 in 10.0 mi East 8.1 mph - N/A   Overcast
7:20 AM 33.8 °F 26.4 °F 24.8 °F 70% 29.67 in 10.0 mi East 9.2 mph - N/A   Overcast
7:35 AM 32.7 °F 27.3 °F 26.2 °F 77% 29.67 in 10.0 mi East 5.8 mph - N/A   Overcast
7:40 AM 33.8 °F 28.6 °F 26.6 °F 75% 29.68 in 10.0 mi East 5.8 mph - N/A   Overcast
8:00 AM 33.8 °F 26.4 °F 26.6 °F 75% 29.67 in 10.0 mi East 9.2 mph - N/A   Overcast
8:15 AM 33.1 °F 26.1 °F 26.8 °F 78% 29.66 in 10.0 mi East 8.1 mph - N/A   Overcast
8:20 AM 33.8 °F 26.4 °F 26.6 °F 75% 29.65 in 10.0 mi East 9.2 mph - N/A   Overcast
8:40 AM 33.8 °F 25.3 °F 26.6 °F 75% 29.64 in 10.0 mi East 11.5 mph - N/A   Overcast
8:55 AM 33.3 °F 24.6 °F 27.9 °F 81% 29.63 in 10.0 mi East 11.5 mph - N/A   Overcast
9:00 AM 33.8 °F 26.4 °F 28.4 °F 81% 29.63 in 10.0 mi East 9.2 mph - N/A   Overcast
9:15 AM 33.4 °F 26.6 °F 28.4 °F 82% 29.63 in 10.0 mi East 8.1 mph - N/A   Overcast
9:20 AM 33.8 °F 27.0 °F 28.4 °F 81% 29.64 in 10.0 mi East 8.1 mph - N/A   Overcast
9:35 AM 33.6 °F 27.5 °F 29.3 °F 84% 29.64 in 10.0 mi East 6.9 mph - N/A   Overcast
9:40 AM 33.8 °F 26.4 °F 28.4 °F 81% 29.64 in 10.0 mi East 9.2 mph - N/A   Overcast
9:55 AM 33.8 °F 26.4 °F 30.0 °F 86% 29.62 in 7.0 mi East 9.2 mph - N/A   Overcast
10:00 AM 33.8 °F 26.4 °F 30.2 °F 87% 29.62 in 7.0 mi East 9.2 mph - N/A   Overcast
10:15 AM 34.3 °F 26.5 °F 30.6 °F 86% 29.60 in 7.0 mi East 10.4 mph - N/A   Overcast
10:20 AM 35.6 °F 28.0 °F 30.2 °F 81% 29.60 in 7.0 mi East 10.4 mph - N/A   Overcast
10:35 AM 34.7 °F 26.4 °F 31.1 °F 87% 29.59 in 7.0 mi East 11.5 mph - N/A   Overcast
10:40 AM 35.6 °F 27.5 °F 30.2 °F 81% 29.58 in 7.0 mi East 11.5 mph - N/A   Overcast
10:55 AM 35.1 °F 26.9 °F 31.5 °F 87% 29.56 in 7.0 mi East 11.5 mph - N/A   Overcast
11:00 AM 35.6 °F 27.1 °F 30.2 °F 81% 29.56 in 5.0 mi East 12.7 mph - N/A   Overcast
11:20 AM 35.6 °F 27.1 °F 32.0 °F 87% 29.55 in 5.0 mi East 12.7 mph 17.3 mph N/A   Overcast
11:40 AM 35.6 °F 27.1 °F 32.0 °F 87% 29.53 in 7.0 mi East 12.7 mph - N/A   Overcast
11:55 AM 35.6 °F 25.9 °F 32.0 °F 87% 29.50 in 7.0 mi East 16.1 mph 23.0 mph N/A   Overcast
11:59 AM 35.6 °F 25.9 °F 32.0 °F 87% 29.50 in 7.0 mi East 16.1 mph 23.0 mph N/A   Overcast
12:15 PM 35.8 °F 26.1 °F 32.2 °F 87% 29.48 in 7.0 mi East 16.1 mph 21.9 mph N/A   Overcast
12:30 PM 35.6 °F 24.5 °F 32.0 °F 87% 29.45 in 10.0 mi East 20.7 mph 29.9 mph N/A   Overcast
12:42 PM 35.6 °F 24.8 °F 32.0 °F 87% 29.42 in 10.0 mi East 19.6 mph 27.6 mph N/A   Overcast
12:58 PM 37.4 °F 28.2 °F 32.0 °F 81% 29.41 in 10.0 mi East 16.1 mph 27.6 mph N/A   Overcast
1:10 PM 36.5 °F 27.4 °F 32.2 °F 84% 29.40 in 10.0 mi East 15.0 mph 21.9 mph N/A   Overcast
1:22 PM 37.4 °F 28.2 °F 32.0 °F 81% 29.36 in 10.0 mi East 16.1 mph 23.0 mph N/A   Overcast
1:43 PM 37.4 °F 28.2 °F 32.0 °F 81% 29.35 in 10.0 mi East 16.1 mph 23.0 mph N/A Thunderstorm Overcast
1:58 PM 37.4 °F 28.5 °F 32.0 °F 81% 29.35 in 10.0 mi East 15.0 mph 19.6 mph N/A   Overcast
2:21 PM 37.4 °F 26.4 °F 32.0 °F 81% 29.30 in 10.0 mi East 23.0 mph 36.8 mph N/A   Overcast
2:35 PM 36.5 °F 24.4 °F 32.4 °F 85% 29.28 in 10.0 mi East 26.5 mph 33.4 mph N/A   Overcast
2:38 PM 35.6 °F 23.2 °F 32.0 °F 87% 29.26 in 10.0 mi East 26.5 mph 33.4 mph N/A   Overcast
2:58 PM 35.6 °F 26.2 °F 32.0 °F 87% 29.29 in 10.0 mi East 15.0 mph 18.4 mph N/A Rain Light Rain
3:20 PM 35.6 °F 25.5 °F 33.8 °F 93% 29.25 in 2.0 mi East 17.3 mph 27.6 mph 0.05 in Rain Light Rain
3:40 PM 35.6 °F 25.2 °F 33.8 °F 93% 29.23 in 3.0 mi East 18.4 mph 23.0 mph 0.10 in Rain Light Rain
3:58 PM 35.6 °F 26.2 °F 33.8 °F 93% 29.22 in 3.0 mi East 15.0 mph 21.9 mph N/A Rain Light Rain
5:15 PM 33.8 °F 24.3 °F 32.7 °F 96% 29.10 in 5.0 mi NE 13.8 mph - 0.01 in Rain Light Rain
5:35 PM 34.2 °F 25.2 °F 32.4 °F 93% 29.13 in 10.0 mi East 12.7 mph 19.6 mph 0.01 in   Mostly Cloudy
5:55 PM 34.2 °F 25.2 °F 32.4 °F 93% 29.11 in 10.0 mi East 12.7 mph 25.3 mph 0.01 in   Overcast
6:15 PM 33.8 °F 24.8 °F 32.2 °F 94% 29.08 in 10.0 mi East 12.7 mph 18.4 mph 0.01 in Rain Light Rain
6:35 PM 33.8 °F 25.8 °F 32.5 °F 95% 29.08 in 10.0 mi East 10.4 mph - 0.01 in Rain Light Rain
6:55 PM 33.8 °F 28.6 °F 32.9 °F 96% 29.07 in 2.5 mi East 5.8 mph 16.1 mph 0.03 in Rain Rain
7:15 PM 33.8 °F - 32.9 °F 96% 29.08 in 1.8 mi Calm Calm - 0.01 in Rain Light Rain
7:35 PM 32.4 °F 27.9 °F 32.2 °F 99% 29.08 in 1.2 mi WNW 4.6 mph - 0.01 in Snow Light Snow
7:55 PM 32.0 °F 27.5 °F 32.0 °F 100% 29.07 in 2.5 mi NW 4.6 mph - 0.02 in Snow Light Snow
8:15 PM 32.2 °F 27.7 °F 32.2 °F 100% 29.05 in 3.0 mi WNW 4.6 mph - N/A Snow Light Snow
8:35 PM 32.2 °F 28.9 °F 32.2 °F 100% 29.05 in 5.0 mi WNW 3.5 mph - N/A Snow Light Snow
8:55 PM 32.4 °F 27.9 °F 32.4 °F 100% 29.05 in 10.0 mi West 4.6 mph - N/A   Overcast
9:15 PM 32.4 °F 26.0 °F 32.4 °F 100% 29.05 in 7.0 mi West 6.9 mph - N/A Snow Light Snow
9:35 PM 32.2 °F 26.7 °F 32.2 °F 100% 29.05 in 3.0 mi West 5.8 mph - N/A Snow Light Snow
9:55 PM 32.2 °F 26.7 °F 32.2 °F 100% 29.06 in 1.8 mi WSW 5.8 mph - N/A Snow Light Snow
10:15 PM 32.0 °F 24.8 °F 32.0 °F 100% 29.06 in 1.0 mi WSW 8.1 mph - N/A Snow Snow
10:35 PM 32.0 °F 24.8 °F 32.0 °F 100% 29.06 in 2.0 mi WSW 8.1 mph - N/A Snow Light Snow
10:55 PM 32.0 °F 24.2 °F 32.0 °F 100% 29.06 in 3.0 mi WSW 9.2 mph 17.3 mph N/A Snow Light Snow
11:15 PM 32.0 °F 24.8 °F 32.0 °F 100% 29.06 in 2.5 mi WSW 8.1 mph - N/A Snow Light Snow
11:35 PM 32.2 °F 23.8 °F 32.2 °F 100% 29.07 in 2.5 mi West 10.4 mph - N/A Snow Light Snow
11:55 PM 32.4 °F 23.0 °F 32.2 °F 99% 29.08 in 3.0 mi West 12.7 mph 19.6 mph N/A Snow Light Snow